Terminal Aerodrome Forecast
Issued by NWS

Home | Current Version | Previous Version | Text Only | Print | Product List | Glossary On
Versions: 1 2 3 4 5 6 7 8 9 10 11 12 13 14 15
000
FTUS46 KSGX 011725
TAFONT
TAF
KONT 011725Z 0118/0224 27006KT 6SM HZ FEW250
     FM012100 26012G20KT P6SM SCT250
     FM020100 27009KT P6SM SCT250
     FM020500 VRB05KT P6SM FEW250
     FM021300 VRB03KT 4SM BR SCT008
     FM022100 26012G20KT P6SM FEW250=

USA.gov is the U.S. government's official web portal to all federal, state and local government web resources and services.